Regional Weather Roundup
Issued by NWS Wakefield, VA

Home | Current Version | Previous Version | Text Only | Print | Product List | Glossary On
Versions: 1 2 3 4 5 6 7 8 9 10 11 12 13 14 15 16 17 18 19 20 21 22 23 24 25 26 27 28
000
ASUS41 KAKQ 010315
RWRAKQ

REGIONAL WEATHER ROUNDUP
NATIONAL WEATHER SERVICE WAKEFIELD VA
1100 PM EDT SAT APR 30 2016

Note: "fair" indicates few or no clouds below 12,000 feet with no
significant weather and/or obstructions to visibility. * = Denotes
station may not report precipitation (e.g., rain,snow,etc.),
thunder or fog.

VAZ042-051-052>054-056-010400-
NORTHERN VIRGINIA

CITY           SKY/WX    TMP DP  RH WIND       PRES   REMARKS
WASH NATIONAL  CLOUDY    54  50  86 S7        30.21F
DULLES         LGT RAIN  52  50  93 S6        30.19F
FORT BELVOIR   LGT RAIN  53  51  93 SE6       30.20F
QUANTICO       LGT RAIN  56  50  80 S13       30.21F
FREDERICKSBRG* DRIZZLE   54  54 100 CALM      30.19F
STAFFORD*      RAIN      52  50  93 CALM      30.23F
WARRENTON      RAIN      53  48  83 SE6       30.17F
CULPEPER*      DRIZZLE   53  53  98 CALM      30.18F
MANASSAS*      CLOUDY    54  52  94 SE7       30.18F
LEESBURG*      LGT RAIN  54  54 100 S5        30.20F
WINCHESTER     CLOUDY    52  50  93 SE5       30.16S
FRONT ROYAL*   CLOUDY    52  50  93 CALM      30.14R
LURAY*         CLOUDY    54  54 100 CALM      30.15R
$$

VAZ048-049-060>072-079>083-010400-
CENTRAL AND SOUTH CENTRAL VIRGINIA

CITY           SKY/WX    TMP DP  RH WIND       PRES   REMARKS
RICHMOND       CLOUDY    54  51  90 E6        30.20S
CHESTERFIELD*  CLOUDY    55  41  58 E3        30.22R
PETERSBURG*    CLOUDY    57  52  81 SE5       30.21R
HANOVER        CLOUDY    54  50  86 CALM      30.21F
TAPPAHANNOCK*  DRIZZLE   55  54  97 E3        30.22S
QUINTON*       CLOUDY    54  52  94 E7        30.20F
CHARLOTTSVILLE CLOUDY    54  52  93 E3        30.16F FOG
GORDONSVILLE*  CLOUDY    53  53  99 CALM      30.16F
ORANGE*        DRIZZLE   54  54 100 CALM      30.20F
LOUISA*        CLOUDY    57  55  94 SE3       30.17F
BUMPASS*       CLOUDY    53  52  97 E3        30.19F
FARMVILLE*     CLOUDY    57  56  95 CALM      30.18F
CREWE*         CLOUDY    55  55 100 CALM      30.19S
FORT PICKETT*  NOT AVBL
CHASE CITY*    CLOUDY    56  54  94 CALM      30.18S
CLARKSVILLE*   CLOUDY    55  55 100 E6        30.17F
SOUTH HILL*    CLOUDY    55  53  92 CALM      30.24F
LAWRENCEVILLE* CLOUDY    55  52  89 E5        30.19S
EMPORIA*       CLOUDY    54  50  87 CALM      30.22R
$$

VAZ088>098-010400-
SOUTHEAST VIRGINIA

CITY           SKY/WX    TMP DP  RH WIND       PRES   REMARKS
NORFOLK        FAIR      54  48  80 E6        30.20F
VIRGINIA BEACH CLOUDY    57  49  74 E7        30.20F
NORFOLK NAVAL  FAIR      54  50  86 E8        30.21F
WEST POINT*    CLOUDY    54  51  91 E3        30.24R
SALUDA*        CLOUDY    54  50  87 E6        30.22S
NEWPORT NEWS   FAIR      54  50  86 E7        30.20F
LANGLEY AFB    MOCLDY    55  49  80 E7        30.20F
FORT EUSTIS    MOCLDY    55  50  83 E6        30.19F
WILLIAMSBURG*  FAIR      55  52  88 E5        30.21F
HR EXEC AP*    MOCLDY    54  48  82 E5        30.22F
FRANKLIN*      CLOUDY    55  49  82 E3        30.21R
US460-WAKEFLD  MOCLDY    55  50  83 E6        30.20S
$$

VAZ020-022-025-037-045-010400-
WEST CENTRAL AND SOUTHWEST VIRGINIA

CITY           SKY/WX    TMP DP  RH WIND       PRES   REMARKS
STAUNTON*      DRIZZLE   55  55  99 CALM      30.15S
WAYNESBORO*    CLOUDY    52  50  95 MISG      30.14F
HOT SPRINGS VA HVY SNOW  49  49 100 S12       30.13S VSB<1/4
LYNCHBURG      LGT RAIN  54  54 100 SE3       30.18F
DANVILLE       CLOUDY    56  55  97 NE6       30.16S FOG
SOUTH BOSTON*  CLOUDY    56  55  95 E6        30.17F
MARTINSVILLE   HVY RAIN  53  53  99 CALM      30.21R
ROANOKE        LGT RAIN  54  53  97 SE6       30.18S
BLACKSBURG     RAIN      53  52  99 E7        30.18S
DUBLIN*        RAIN      54  54 100 CALM      30.18R
MARION*        CLOUDY    57  55  93 E12       30.14F
HILLSVILLE*    LGT RAIN  54  54 100 CALM      30.15S
RICHLANDS*     LGT RAIN  59  57  94 SE6       30.08R
WISE*          RAIN      61  59  94 S9        30.08R
ABINGDON*      LGT RAIN  62  60  94 CALM      30.07R
$$

MDZ021>025-VAZ099-100-010400-
SOUTHERN MARYLAND AND THE DELMARVA PENINSULA

CITY           SKY/WX    TMP DP  RH WIND       PRES   REMARKS
PATUXENT RIVER CLOUDY    54  45  71 SE9       30.22R
BAY BRIDGE APT NOT AVBL
LEONARDTOWN    CLOUDY    52  46  82 SE3       30.23S
DOVER          CLOUDY    51  44  77 SE6       30.22F
GEORGETOWN     CLOUDY    49  44  83 SE3       30.23F
EASTON         CLOUDY   N/A N/A N/A SE5       30.27
CAMBRIDGE      CLOUDY    50  41  71 SE6       30.23R
SALISBURY      CLOUDY    50  45  83 E5        30.22F
OCEAN CITY     CLOUDY    51  45  79 E8        30.23F
WALLOPS ISLAND MOCLDY    52  45  77 E8        30.23F
ACCOMACK*      MOCLDY   N/A N/A N/A E5        30.21F
$$

NCZ012>017-030>032-010400-
NORTH CENTRAL AND EASTERN NORTH CAROLINA

CITY           SKY/WX    TMP DP  RH WIND       PRES   REMARKS
ROANOKE RAPIDS CLOUDY    57  54  88 E3        30.19S
RALEIGH        CLOUDY    60  56  86 E6        30.16F
ELIZABETH CITY CLOUDY    55  51  86 NE10      30.20S
AHOSKIE*       CLOUDY    56  51  82 E5        30.21R
EDENTON*       CLOUDY    57  55  94 E5        30.21R
CURRITUCK*     CLOUDY    55  52  89 NE8       30.21S
KILL DEVIL HLS PTCLDY    54  52  94 NE6       30.20R
MANTEO         NOT AVBL
CAPE HATTERAS  CLEAR     57  55  93 NE5       30.18F
TARBORO*       CLOUDY    60  55  82 E6        30.19S
GOLDSBORO      CLOUDY    63  63 100 E8        30.14S
WASHINGTON     CLOUDY    57  53  85 E6        30.19S
GREENVILLE     CLOUDY    59  54  82 E3        30.19S
NEW BERN       CLOUDY    61  56  83 E8        30.19R
WILMINGTON     CLOUDY    63  58  83 E12G17    30.14S
$$

VAZ048-010400-
ELSEWHERE

CITY           SKY/WX    TMP DP  RH WIND       PRES   REMARKS
HARRISBURG PA  CLOUDY    55  46  71 S7        30.18F
BALTIMORE      LGT RAIN  53  50  89 CALM      30.20F
ANNAPOLIS      LGT RAIN  55  49  80 MISG      30.21S
ANDREWS AFB    CLOUDY    52  50  93 SE7       30.19F
PHILADELPHIA   CLOUDY    53  35  50 SE6       30.24S
HENDERSON NC   CLOUDY    56  56 100 E5        30.17F FOG
GREENSBORO     LGT RAIN  58  58 100 CALM      30.14R FOG
ROCKY MOUNT    CLOUDY    60  55  83 E3        30.17S
$$

VAZ100-010400-
MARINE

STATION/POSITION TIME  TEMP    WIND        PRES    WAVE   SWELL
                       AIR SEA DIR/SP/G            HT/PER HT/PER
                 (UTC) (F)     (DEG/KT/KT) (MB)    (FT/S) (FT/S)
BRANDYWINE LGT   0200   51     120/  9/ 10 1024.1R
CAPE MAY NJ      0200   50 58  100/  7/  9 1023.6S
LEWES DE         0200   51 56  120/  6/  8 1023.8F
15NM E FENWICK I 0250   50 51              1023.8R   5/ 9
OCEAN-CITY-INLET 0200   51 56  100/  4/  5 1023.6R
WACHAPREAGUE VA  0200   53 61   90/  8/ 12 1023.4R
THOMAS POINT MD  0300   54 57  130/ 14/ 16 1024.2R
GOOSES REEF MD   0300   54 57  140/ 12/ 14 1024.2R   1/ 2
COVE POINT MD    0200   54     160/ 12/ 17 1023.5S
SOLOMONS ISLAND  0200   55 59  140/ 12/ 14   N/A
BISHOPS HEAD MD  0200   53 58  120/ 14/ 14 1022.5F
PINEY POINT MD   0200          160/ 15/ 16   N/A
POTOMAC MD       0300   54 59  120/ 12/ 14 1022.3S   2/ 3
CAMBRIDGE MD     0200   53 60  100/  8/ 10 1022.4F
LEWISETTA VA     0200   54 60  150/  9/ 10 1023.0R
RAPPAHANNOCK LGT 0200           90/ 14/ 16 1023.6F
STINGRAY PT      0200   54 61  110/ 14/ 17 1023.3S   2/ 3
YORK RVR RNG VA  0200   55     110/ 15/ 17 1022.3F
YORKTOWN VA      0200   56 62  110/ 11/ 14 1022.9R
JAMESTOWN VA     0300   55 66   90/  8/ 12   N/A     0
DOMINION TERM VA 0200   55      80/ 11/ 15 1022.9F
KIPTOPEKE VA     0200      60   90/  6/ 11   N/A
CHES BAY BRIDGE  0200   54 60   60/ 14/ 16 1022.7R
CAPE HENRY VA    0200   54      80/ 14/ 16   N/A
CHESAPEAKE LGHT  0200   53      70/ 16/ 17 1023.7S
WILLOUBY STN VA  0200   55                 1023.6F
CAPE HENRY BUOY  0212      55                N/A     5/ 9   2/11
CAPE CHARLES BUO 0226      57                N/A     4/11   3/11
OFFSHORE WE BUOY 0221      54                N/A     5/ 9   5/ 9
64NM E OF VA BCH 0250   54 53   40/  8/ 10 1022.6F   6/10   7/10
DUCK PIER NC     0200   54 67   50/ 17/ 18 1022.2S
44100 DUCK FRF   0224      54                N/A     5/ 8   2/11
44056 DUCK FRF   0211      58                N/A     5/ 9   2/11
OREGON INLET NC  0200   55 62   40/ 12/ 15 1022.5R
HATTERAS NC      0200   58 69   60/ 10/ 15 1021.9R
DIAMOND SHLS NC  0250   65 74   40/ 14/ 16 1021.8F   5/ 8   5/ 8
CAPE LOOKOUT NC  0300   62      60/ 15/ 1C1F1C2F2C3F3C4F4C5F5C6F6C7F7C8M1C9!



USA.gov is the U.S. government's official web portal to all federal, state and local government web resources and services.